Location: Newark
(44.6028°N, 124.0883°W)
Time: 08:51:48
(UTC+00:00)

Transit 4A - Visible Passes

Search period start: 14 October 2019 00:00
Search period end: 24 October 2019 00:00
Orbit: 866 x 978 km, 66.8° (Epoch: 13 October)

Date Brightness Start Highest point End Pass type
(mag) Time Alt. Az. Time Alt. Az. Time Alt. Az.
14 Oct 9.5 13:30:33 10° S 13:36:22 39° ESE 13:42:08 10° NE visible
15 Oct 8.8 13:39:23 10° SSW 13:45:35 56° ESE 13:51:42 10° NE visible
16 Oct 10.7 12:06:25 10° SE 12:09:27 14° ESE 12:12:27 10° ENE visible
16 Oct 8.2 13:48:30 10° SSW 13:54:52 80° ESE 14:01:08 10° NE visible
17 Oct 10.3 12:13:54 10° SSE 12:18:28 21° ESE 12:22:59 10° ENE visible
17 Oct 8.0 13:57:52 10° SW 14:04:14 75° NW 14:10:29 10° NNE visible
18 Oct 9.7 12:22:07 10° SSE 12:27:33 31° ESE 12:32:55 10° NE visible
18 Oct 8.2 14:07:27 10° SW 14:13:40 54° NW 14:19:46 10° NNE visible
19 Oct 9.0 12:30:45 10° S 12:36:43 44° ESE 12:42:37 10° NE visible
20 Oct 8.3 12:39:41 10° SSW 12:45:57 64° ESE 12:52:08 10° NE visible
21 Oct 10.4 11:06:04 10° SE 11:09:43 16° ESE 11:13:23 10° ENE visible
21 Oct 7.9 12:49:41 14° SSW 12:55:15 89° SE 13:01:32 10° NNE visible
22 Oct 9.8 11:16:34 20° SE 11:18:45 24° ESE 11:23:38 10° NE visible
22 Oct 7.9 13:00:10 20° SW 13:04:38 66° NW 13:10:51 10° NNE visible
23 Oct 9.2 11:26:48 33° SE 11:27:52 35° ESE 11:33:27 10° NE visible
23 Oct 8.2 13:10:23 23° WSW 13:14:06 48° NW 13:20:06 10° NNE visible
